W0JRT-6 Weather Reports


time (UTC)temp
C
wind
direction
speed
KPH
gust
KPH
rain 1hr
cm
rain 24hr
cm
rain mn
cm
humidity
%
barometer
mb
20260505071002 13 15 3.2 9.7 0.00 0.00 0.00 54 1005.2
20260505070006 15 0 4.8 12.9 0.00 0.00 0.00 48 1005.4
20260505065005 15 341 6.4 17.7 0.00 0.00 0.00 44 1005.3
20260505063959 15 324 11.3 20.9 0.00 0.00 0.00 43 1004.9
20260505062958 16 344 12.9 27.4 0.00 0.00 0.00 41 1003.8
20260505062008 16 336 9.7 24.1 0.00 0.00 0.00 41 1003.2
20260505060959 16 340 14.5 33.8 0.00 0.00 0.00 38 1002.8
20260505060002 17 350 12.9 29.0 0.00 0.00 0.00 39 1002.5
20260505055007 17 324 19.3 37.0 0.00 0.00 0.00 38 1002.0
20260505054000 17 331 12.9 33.8 0.00 0.00 0.00 37 1001.8
20260505053002 18 324 14.5 30.6 0.00 0.00 0.00 36 1001.5
20260505052007 19 354 11.3 33.8 0.00 0.00 0.00 36 1001.5
20260505051001 20 2 11.3 19.3 0.00 0.00 0.00 35 1001.4
20260505041005 21 352 6.4 19.3 0.00 0.00 0.00 39 1000.3
20260505040009 21 341 6.4 19.3 0.00 0.00 0.00 38 1000.3
20260505034957 22 350 9.7 20.9 0.00 0.00 0.00 39 1000.3
20260505034000 22 336 6.4 12.9 0.00 0.00 0.00 42 1000.0
20260505033005 21 316 9.7 19.3 0.00 0.00 0.00 48 1000.2
20260505030958 17 334 8.0 12.9 0.00 0.00 0.00 83 999.8
20260505030003 17 177 0.0 0.0 0.00 0.00 0.00 77 999.1
20260505025003 17 177 0.0 0.0 0.00 0.00 0.00 76 998.9
20260505024012 18 177 0.0 0.0 0.00 0.00 0.00 77 998.8
20260505023012 18 177 0.0 0.0 0.00 0.00 0.00 74 998.6
20260505021958 18 177 0.0 0.0 0.00 0.00 0.00 73 998.5
20260505021004 18 177 0.0 0.0 0.00 0.00 0.00 75 998.2
20260505015004 19 177 0.0 0.0 0.00 0.00 0.00 71 997.5
20260505014002 19 177 0.0 0.0 0.00 0.00 0.00 71 997.3
20260505012012 21 177 0.0 0.0 0.00 0.00 0.00 63 996.5
20260505011005 22 177 0.0 0.0 0.00 0.00 0.00 63 996.2
20260505005959 23 177 0.0 0.0 0.00 0.00 0.00 55 995.9
20260505005004 23 177 0.0 0.0 0.00 0.00 0.00 53 995.8
20260505004003 25 177 0.0 0.0 0.00 0.00 0.00 54 995.6
20260505002011 25 177 0.0 0.0 0.00 0.00 0.00 47 995.4
20260505001000 26 177 0.0 0.0 0.00 0.00 0.00 46 995.3
20260505000012 26 177 0.0 4.8 0.00 0.00 0.00 46 995.2
20260504235012 26 125 0.0 3.2 0.00 0.00 0.00 44 995.1
20260504233959 26 212 0.0 3.2 0.00 0.00 0.00 42 995.1
20260504233003 26 135 0.0 6.4 0.00 0.00 0.00 40 995.0
20260504232007 26 300 0.0 4.8 0.00 0.00 0.00 41 994.8
20260504230959 27 208 1.6 6.4 0.00 0.00 0.00 38 994.8
20260504230003 27 154 3.2 8.0 0.00 0.00 0.00 38 994.6
20260504225002 27 225 3.2 11.3 0.00 0.00 0.00 39 994.6
20260504223958 27 188 4.8 14.5 0.00 0.00 0.00 39 994.6
20260504222006 27 187 6.4 17.7 0.00 0.00 0.00 39 994.9
20260504221006 27 168 3.2 12.9 0.00 0.00 0.00 42 995.0
20260504215957 27 153 8.0 17.7 0.00 0.00 0.00 39 995.1
20260504214959 27 248 1.6 8.0 0.00 0.00 0.00 41 995.0
20260504214400 27 178 6.4 12.9 0.00 0.00 0.00 41 995.1
20260504214001 27 178 6.4 12.9 0.00 0.00 0.00 41 995.1
20260504212957 27 184 4.8 9.7 0.00 0.00 0.00 36 995.1
20260504212006 27 5 4.8 12.9 0.00 0.00 0.00 36 995.1
20260504211443 27 139 4.8 12.9 0.00 0.00 0.00 36 995.0
20260504211003 27 139 4.8 12.9 0.00 0.00 0.00 36 995.0
20260504210001 27 191 4.8 11.3 0.00 0.00 0.00 36 995.1
20260504205102 27 170 4.8 11.3 0.00 0.00 0.00 36 995.1
20260504205002 27 170 4.8 11.3 0.00 0.00 0.00 36 995.1
20260504203011 28 165 4.8 14.5 0.00 0.00 0.00 37 995.4
20260504201000 27 164 8.0 17.7 0.00 0.00 0.00 36 995.6
20260504195012 27 184 8.0 19.3 0.00 0.00 0.00 34 995.7
20260504193958 27 147 6.4 19.3 0.00 0.00 0.00 34 995.7
20260504192001 27 150 9.7 19.3 0.00 0.00 0.00 35 995.7
20260504190007 27 267 6.4 14.5 0.00 0.00 0.00 37 995.9
20260504184958 26 307 8.0 14.5 0.00 0.00 0.00 37 996.0
20260504184003 26 160 9.7 20.9 0.00 0.00 0.00 40 996.0
20260504183003 26 144 6.4 16.1 0.00 0.00 0.00 38 996.1
20260504182001 26 158 9.7 20.9 0.00 0.00 0.00 40 996.1
20260504181003 26 142 6.4 16.1 0.00 0.00 0.00 40 996.2
20260504175958 26 289 6.4 14.5 0.00 0.00 0.00 41 996.3
20260504175007 26 307 4.8 12.9 0.00 0.00 0.00 39 996.5
20260504174003 26 293 6.4 14.5 0.00 0.00 0.00 39 996.6
20260504173002 25 139 8.0 16.1 0.00 0.00 0.00 40 996.6
20260504172003 25 307 6.4 14.5 0.00 0.00 0.00 41 996.6
20260504171006 25 296 8.0 20.9 0.00 0.00 0.00 40 996.9
20260504150959 22 272 4.8 12.9 0.00 0.00 0.00 49 997.8
20260504141005 20 161 6.4 17.7 0.00 0.00 0.00 55 998.7
20260504082004 18 305 0.0 8.0 0.00 0.00 0.00 54 1001.2
20260504081012 18 302 0.0 6.4 0.00 0.00 0.00 53 1001.4